Weather History for Hillsdale, MI

Change the Weather History Date:

Thursday, January 31, 2013

  Actual Average Record
Temperature  
Mean Temperature 22 °F -  
Max Temperature 29 °F 30 °F 53 °F (2012)
Min Temperature 14 °F 13 °F -8 °F (1971)
Degree Days  
Heating Degree Days 44    
Moisture  
Dew Point 14 °F    
Average Humidity 77    
Maximum Humidity 87    
Minimum Humidity 64    
Precipitation  
Precipitation 0.00 in - - ()
Sea Level Pressure  
Sea Level Pressure 29.65 in    
Wind  
Wind Speed 19 mph (West)    
Max Wind Speed 28 mph    
Max Gust Speed 38 mph    
Visibility 6 miles    
Events Snow    
Averages and records for this station are not official NWS values.
T = Trace of Precipitation, MM = Missing Value Source: NWS Daily Summary

Daily Weather History Graph

Daily Weather History Graph

Search for Another Location

Airport:

Trip Planner

Search our weather history database for the weather conditions in past years. The results will help you decide how hot, cold, wet, or windy it might be!

Date:

Astronomy

Jan. 31, 2013 Rise Set
Actual Time 7:51 AM EST 5:52 PM EST
Civil Twilight 7:22 AM EST 6:22 PM EST
Nautical Twilight 6:48 AM EST 6:55 PM EST
Astronomical Twilight 6:15 AM EST 7:28 PM EST
Moon 10:59 PM EST (1/31) 9:45 AM EST (1/31)
Length of Visible Light 11h 00m
Length of Day
10h 00m
Waning Gibbous, 80% of the Moon is Illuminated
Jan 31
Waning Gibbous
Feb 3
Last Quarter
Feb 10
New
Feb 17
First Quarter
Feb 25
Full

Hourly Weather History & Observations

Time (EST) Temp. Windchill Dew Point Humidity Pressure Visibility Wind Dir Wind Speed Gust Speed Precip Events Conditions
12:15 AM 29.1 °F 16.0 °F 22.6 °F 77% 29.34 in 10.0 mi West 20.7 mph 36.8 mph N/A   Overcast
12:34 AM 28.8 °F 13.7 °F 21.7 °F 75% 29.36 in 10.0 mi West 27.6 mph 35.7 mph N/A   Overcast
12:55 AM 28.0 °F 15.7 °F 22.8 °F 81% 29.37 in 7.0 mi West 17.3 mph 26.5 mph N/A Snow Light Snow
1:15 AM 27.3 °F 15.2 °F 23.9 °F 87% 29.37 in 5.0 mi West 16.1 mph 28.8 mph N/A Snow Light Snow
1:35 AM 28.0 °F 14.3 °F 24.3 °F 86% 29.39 in 7.0 mi West 21.9 mph 31.1 mph N/A Snow Light Snow
1:54 AM 27.9 °F 14.7 °F 24.3 °F 86% 29.40 in 7.0 mi WNW 19.6 mph 25.3 mph N/A Snow Light Snow
2:15 AM 27.3 °F 13.6 °F 21.9 °F 80% 29.41 in 10.0 mi West 20.7 mph 35.7 mph N/A Snow Light Snow
2:34 AM 27.0 °F 14.3 °F 21.7 °F 81% 29.43 in 7.0 mi West 17.3 mph 34.5 mph N/A Snow Light Snow
2:55 AM 26.4 °F 11.5 °F 20.7 °F 79% 29.44 in 10.0 mi West 24.2 mph 38.0 mph N/A Snow Light Snow
3:15 AM 25.7 °F 10.5 °F 19.0 °F 76% 29.45 in 10.0 mi West 24.2 mph 36.8 mph N/A   Overcast
3:34 AM 25.2 °F 12.0 °F 18.7 °F 76% 29.46 in 10.0 mi West 17.3 mph 32.2 mph N/A   Overcast
3:54 AM 25.2 °F 10.1 °F 18.3 °F 75% 29.47 in 10.0 mi West 23.0 mph 33.4 mph N/A   Overcast
4:15 AM 24.3 °F 10.0 °F 19.6 °F 82% 29.48 in 2.5 mi West 19.6 mph 28.8 mph N/A Snow Light Snow
4:34 AM 23.5 °F 8.3 °F 18.0 °F 79% 29.49 in 5.0 mi West 21.9 mph 31.1 mph N/A Snow Light Snow
4:55 AM 23.2 °F 8.6 °F 17.8 °F 80% 29.51 in 4.0 mi West 19.6 mph 29.9 mph N/A Snow Light Snow
5:15 AM 22.6 °F 7.9 °F 16.9 °F 79% 29.52 in 4.0 mi West 19.6 mph 27.6 mph N/A Snow Light Snow
5:34 AM 22.5 °F 8.5 °F 16.2 °F 77% 29.53 in 10.0 mi West 17.3 mph 34.5 mph N/A Snow Light Snow
5:55 AM 22.3 °F 7.8 °F 16.3 °F 78% 29.53 in 10.0 mi West 18.4 mph 27.6 mph N/A   Overcast
6:15 AM 21.9 °F 6.5 °F 16.5 °F 80% 29.54 in 7.0 mi West 20.7 mph 28.8 mph N/A Snow Light Snow
6:34 AM 21.9 °F 7.3 °F 15.4 °F 76% 29.55 in 10.0 mi West 18.4 mph 25.3 mph N/A   Overcast
6:55 AM 21.7 °F 5.6 °F 15.4 °F 77% 29.55 in 10.0 mi West 23.0 mph 27.6 mph N/A   Overcast
7:14 AM 21.7 °F 5.2 °F 15.3 °F 76% 29.56 in 10.0 mi West 24.2 mph 33.4 mph N/A Snow Light Snow
7:35 AM 21.9 °F 5.8 °F 15.4 °F 76% 29.57 in 10.0 mi West 23.0 mph 28.8 mph N/A   Overcast
7:54 AM 21.4 °F 5.8 °F 16.2 °F 80% 29.59 in 5.0 mi West 20.7 mph 29.9 mph N/A Snow Light Snow
8:15 AM 21.0 °F 9.3 °F 17.1 °F 85% 29.59 in 1.0 mi West 11.5 mph 23.0 mph N/A Snow Light Snow
8:34 AM 20.7 °F 8.8 °F 16.9 °F 85% 29.60 in 1.2 mi West 11.5 mph 21.9 mph N/A Snow Light Snow
8:55 AM 19.6 °F 3.9 °F 16.0 °F 86% 29.61 in 1.0 mi WSW 19.6 mph 26.5 mph N/A Snow Light Snow
9:15 AM 18.9 °F 2.9 °F 15.6 °F 87% 29.62 in 0.5 mi WSW 19.6 mph 28.8 mph N/A Snow Light Snow
9:35 AM 19.0 °F 3.6 °F 15.3 °F 85% 29.64 in 1.0 mi West 18.4 mph 26.5 mph N/A Snow Light Snow
9:54 AM 19.6 °F 5.7 °F 13.6 °F 78% 29.65 in 3.0 mi West 15.0 mph 27.6 mph N/A Snow Light Snow
10:35 AM 19.6 °F 4.3 °F 13.6 °F 78% 29.67 in 1.5 mi West 18.4 mph 28.8 mph N/A Snow Light Snow
10:55 AM 19.6 °F 4.7 °F 13.3 °F 77% 29.68 in 2.5 mi WSW 17.3 mph 25.3 mph N/A Snow Light Snow
11:14 AM 19.8 °F 4.1 °F 14.0 °F 78% 29.69 in 1.0 mi West 19.6 mph 26.5 mph N/A Snow Light Snow
11:35 AM 19.8 °F 4.5 °F 13.3 °F 76% 29.70 in 1.8 mi West 18.4 mph 28.8 mph N/A Snow Light Snow
11:59 AM 19.8 °F 5.0 °F 14.9 °F 81% 29.70 in 1.8 mi WSW 17.3 mph 21.9 mph N/A Snow Light Snow
12:15 PM 19.6 °F 8.9 °F 15.1 °F 83% 29.70 in 1.0 mi WSW 9.2 mph 19.6 mph N/A Snow Light Snow
12:35 PM 19.6 °F 5.2 °F 14.4 °F 80% 29.70 in 1.8 mi WSW 16.1 mph 23.0 mph N/A Snow Light Snow
12:54 PM 20.5 °F 5.9 °F 13.5 °F 74% 29.70 in 3.0 mi West 17.3 mph 26.5 mph N/A Snow Light Snow
1:15 PM 19.8 °F 5.9 °F 14.9 °F 81% 29.70 in 0.5 mi WSW 15.0 mph 21.9 mph N/A Snow Light Snow
1:34 PM 19.9 °F 3.9 °F 12.9 °F 74% 29.71 in 3.0 mi West 20.7 mph 26.5 mph N/A Snow Light Snow
1:55 PM 20.7 °F 4.5 °F 13.1 °F 73% 29.71 in 5.0 mi West 21.9 mph 27.6 mph N/A Snow Light Snow
2:15 PM 20.7 °F 4.9 °F 11.7 °F 68% 29.71 in 5.0 mi West 20.7 mph 27.6 mph N/A   Haze
2:34 PM 20.1 °F 5.4 °F 12.6 °F 73% 29.72 in 4.0 mi West 17.3 mph 26.5 mph N/A Snow Light Snow
2:55 PM 20.3 °F 4.0 °F 10.6 °F 66% 29.73 in 5.0 mi West 21.9 mph 25.3 mph N/A   Haze
3:15 PM 19.8 °F 5.9 °F 12.6 °F 74% 29.73 in 3.0 mi West 15.0 mph 23.0 mph N/A Snow Light Snow
3:34 PM 18.9 °F 3.8 °F 14.7 °F 84% 29.74 in 1.2 mi West 17.3 mph - N/A Snow Light Snow
3:55 PM 18.7 °F 3.6 °F 11.8 °F 75% 29.74 in 0.8 mi West 17.3 mph 34.5 mph N/A Snow Light Snow
4:15 PM 18.9 °F 3.8 °F 9.7 °F 67% 29.75 in 10.0 mi West 17.3 mph 25.3 mph N/A   Overcast
4:34 PM 18.9 °F 3.8 °F 8.8 °F 65% 29.75 in 10.0 mi West 17.3 mph 25.3 mph N/A   Mostly Cloudy
4:55 PM 18.3 °F 2.2 °F 8.1 °F 64% 29.75 in 10.0 mi West 19.6 mph 26.5 mph N/A   Overcast
5:15 PM 18.1 °F 3.4 °F 8.1 °F 65% 29.76 in 10.0 mi West 16.1 mph 24.2 mph N/A   Overcast
5:35 PM 17.8 °F 1.5 °F 7.5 °F 64% 29.77 in 10.0 mi West 19.6 mph 28.8 mph N/A   Overcast
5:55 PM 17.1 °F 1.5 °F 7.7 °F 67% 29.77 in 10.0 mi West 17.3 mph 26.5 mph N/A   Overcast
6:14 PM 16.9 °F 3.4 °F 8.2 °F 69% 29.78 in 10.0 mi West 12.7 mph 23.0 mph N/A   Overcast
6:35 PM 16.3 °F 0.5 °F 9.0 °F 73% 29.79 in 5.0 mi West 17.3 mph 26.5 mph N/A Snow Light Snow
6:55 PM 16.2 °F 2.5 °F 9.5 °F 75% 29.80 in 7.0 mi West 12.7 mph 24.2 mph N/A Snow Light Snow
7:15 PM 15.6 °F -0.4 °F 9.1 °F 76% 29.81 in 5.0 mi West 17.3 mph 24.2 mph N/A Snow Light Snow
7:33 PM 15.4 °F 0.4 °F 9.0 °F 76% 29.81 in 7.0 mi West 15.0 mph - N/A Snow Light Snow
7:55 PM 15.4 °F 2.3 °F 9.5 °F 77% 29.82 in 5.0 mi West 11.5 mph 18.4 mph N/A Snow Light Snow
8:14 PM 15.4 °F 2.3 °F 10.2 °F 80% 29.83 in 3.0 mi West 11.5 mph 21.9 mph N/A Snow Light Snow
8:34 PM 15.4 °F -0.1 °F 10.2 °F 80% 29.84 in 3.0 mi West 16.1 mph 23.0 mph N/A Snow Light Snow
9:14 PM 15.3 °F 0.2 °F 9.9 °F 79% 29.84 in 3.0 mi West 15.0 mph 21.9 mph N/A Snow Light Snow
9:34 PM 15.1 °F -0.1 °F 9.9 °F 80% 29.85 in 4.0 mi West 15.0 mph 21.9 mph N/A Snow Light Snow
10:14 PM 15.1 °F 0.5 °F 9.9 °F 80% 29.86 in 4.0 mi West 13.8 mph 18.4 mph N/A Snow Light Snow
10:35 PM 14.5 °F 2.7 °F 9.7 °F 81% 29.86 in 4.0 mi West 9.2 mph 20.7 mph N/A Snow Light Snow
10:55 PM 14.5 °F 1.1 °F 9.9 °F 82% 29.86 in 5.0 mi West 11.5 mph 17.3 mph N/A Snow Light Snow
11:14 PM 14.4 °F -1.0 °F 9.7 °F 82% 29.86 in 4.0 mi West 15.0 mph 20.7 mph N/A Snow Light Snow
11:35 PM 14.4 °F -0.4 °F 9.9 °F 82% 29.86 in 3.0 mi West 13.8 mph 21.9 mph N/A Snow Light Snow